Location: Pedimozza
(42.0500°N, 9.3500°E)
Time: 09:38:06
(UTC+00:00)

Cosmos 1241 Rocket - Pass Details

Date: 19 August 2019
Orbit: 937 x 1011 km, 65.8° (Epoch: 14 September)

Event Time Altitude Azimuth Distance (km) Brightness Sun altitude
Rises 20:07:11 0° 199° (SSW) 3,728 7.4 -18.7°
Reaches altitude 10° 20:09:47 10° 196° (SSW) 2,779 6.7 -19.1°
Maximum altitude 20:16:14 63° 117° (ESE) 1,110 4.5 -20.0°
Drops below altitude 10° 20:22:37 10° 38° (NE) 2,763 6.9 -20.9°
Sets 20:25:13 0° 35° (NE) 3,706 7.6 -21.3°
